Clinton, AR

5:24 AM CDT on April 24, 2017 (GMT -0500)
Clinton

Weather History for KCCA - November, 2012

Change the Weather History Date:

Tuesday, November 13, 2012

  Actual Average (KBVX) Record (KBVX)
Temperature  
Mean Temperature 42 °F -  
Max Temperature 55 °F 60 °F 84 °F (1955)
Min Temperature 28 °F 35 °F 15 °F (1986)
Degree Days  
Heating Degree Days 24    
Moisture  
Dew Point 29 °F    
Average Humidity 75    
Maximum Humidity 100    
Minimum Humidity 25    
Precipitation  
Precipitation 0.00 in - - ()
Sea Level Pressure  
Sea Level Pressure 30.48 in    
Wind  
Wind Speed 0 mph (ESE)    
Max Wind Speed 7 mph    
Max Gust Speed -    
Visibility 10 miles    
Events      
Averages and records for this station are not official NWS values.
T = Trace of Precipitation, MM = Missing Value Source: NWS Daily Summary

Daily Weather History Graph

Daily Weather History Graph

Search for Another Location

Airport or City:

Trip Planner

Search our weather history database for the weather conditions in past years. The results will help you decide how hot, cold, wet, or windy it might be!

Date:

Astronomy

Nov. 13, 2012 Rise Set
Actual Time 6:43 AM CST 5:03 PM CST
Civil Twilight 6:16 AM CST 5:31 PM CST
Nautical Twilight 5:46 AM CST 6:01 PM CST
Astronomical Twilight 5:16 AM CST 6:31 PM CST
Moon 6:22 AM CST (11/13) 4:58 PM CST (11/13)
Length of Visible Light 11h 14m
Length of Day
10h 19m
Waning Crescent, 0% of the Moon is Illuminated
Nov 13
Waning Crescent
Nov 13
New
Nov 20
First Quarter
Nov 28
Full
Dec 6
Last Quarter

Hourly Weather History & Observations

Time (CST) Temp. Dew Point Humidity Pressure Visibility Wind Dir Wind Speed Gust Speed Precip Events Conditions
12:15 AM 32.0 °F 30.2 °F 93% 30.51 in 10.0 mi Calm Calm - N/A   Clear
12:35 AM 30.2 °F 30.2 °F 100% 30.51 in 10.0 mi Calm Calm - N/A   Clear
1:15 AM 30.2 °F 30.2 °F 100% 30.52 in 10.0 mi Calm Calm - N/A   Clear
1:35 AM 30.2 °F 30.2 °F 100% 30.52 in 10.0 mi Calm Calm - N/A   Clear
1:55 AM 30.2 °F 28.4 °F 93% 30.51 in 10.0 mi Calm Calm - N/A   Clear
2:15 AM 30.2 °F 28.4 °F 93% 30.51 in 10.0 mi Calm Calm - N/A   Clear
2:35 AM 30.2 °F 28.4 °F 93% 30.51 in 10.0 mi Calm Calm - N/A   Clear
2:55 AM 28.4 °F 28.4 °F 100% 30.51 in 10.0 mi Calm Calm - N/A   Partly Cloudy
3:15 AM 28.4 °F 28.4 °F 100% 30.51 in 10.0 mi Calm Calm - N/A   Scattered Clouds
3:35 AM 28.4 °F 28.4 °F 100% 30.51 in 10.0 mi Calm Calm - N/A   Partly Cloudy
3:55 AM 28.4 °F 28.4 °F 100% 30.51 in 10.0 mi Calm Calm - N/A   Clear
4:15 AM 28.4 °F 28.4 °F 100% 30.52 in 10.0 mi Calm Calm - N/A   Clear
4:35 AM 28.4 °F 28.4 °F 100% 30.52 in 10.0 mi Calm Calm - N/A   Clear
4:55 AM 28.4 °F 26.6 °F 93% 30.52 in 10.0 mi Calm Calm - N/A   Clear
5:15 AM 28.4 °F 26.6 °F 93% 30.53 in 10.0 mi Calm Calm - N/A   Clear
5:55 AM 28.4 °F 26.6 °F 93% 30.53 in 10.0 mi Calm Calm - N/A   Clear
6:15 AM 28.4 °F 26.6 °F 93% 30.54 in 10.0 mi Calm Calm - N/A   Clear
6:55 AM 28.4 °F 26.6 °F 93% 30.54 in 10.0 mi Calm Calm - N/A   Clear
7:15 AM 28.4 °F 26.6 °F 93% 30.54 in 10.0 mi Calm Calm - N/A   Clear
7:35 AM 28.4 °F 28.4 °F 100% 30.54 in 9.0 mi Calm Calm - N/A   Clear
7:55 AM 30.2 °F 28.4 °F 93% 30.54 in 10.0 mi Calm Calm - N/A   Clear
8:15 AM 32.0 °F 30.2 °F 93% 30.55 in 10.0 mi Calm Calm - N/A   Clear
8:35 AM 32.0 °F 30.2 °F 93% 30.55 in 10.0 mi Calm Calm - N/A   Clear
8:55 AM 33.8 °F 32.0 °F 93% 30.55 in 10.0 mi Calm Calm - N/A   Clear
9:15 AM 35.6 °F 32.0 °F 87% 30.56 in 10.0 mi Calm Calm - N/A   Clear
9:35 AM 39.2 °F 32.0 °F 75% 30.56 in 10.0 mi Calm Calm - N/A   Clear
9:55 AM 41.0 °F 32.0 °F 70% 30.55 in 10.0 mi Calm Calm - N/A   Clear
10:15 AM 44.6 °F 32.0 °F 61% 30.55 in 10.0 mi Calm Calm - N/A   Clear
10:35 AM 48.2 °F 32.0 °F 54% 30.54 in 10.0 mi Calm Calm - N/A   Clear
10:55 AM 48.2 °F 28.4 °F 46% 30.53 in 10.0 mi West 3.5 mph - N/A   Clear
11:15 AM 51.8 °F 26.6 °F 38% 30.52 in 10.0 mi ESE 3.5 mph - N/A   Clear
11:35 AM 51.8 °F 26.6 °F 38% 30.50 in 10.0 mi ESE 6.9 mph - N/A   Clear
11:55 AM 53.6 °F 24.8 °F 33% 30.49 in 10.0 mi ESE 5.8 mph - N/A   Clear
12:15 PM 53.6 °F 23.0 °F 30% 30.47 in 10.0 mi East 3.5 mph - N/A   Clear
12:55 PM 53.6 °F 26.6 °F 35% 30.45 in 10.0 mi Calm Calm - N/A   Clear
1:15 PM 55.4 °F 21.2 °F 26% 30.44 in 10.0 mi Calm Calm - N/A   Clear
1:35 PM 55.4 °F 23.0 °F 29% 30.43 in 10.0 mi East 6.9 mph - N/A   Clear
1:55 PM 55.4 °F 24.8 °F 31% 30.42 in 10.0 mi Calm Calm - N/A   Clear
2:15 PM 55.4 °F 21.2 °F 26% 30.42 in 10.0 mi SSE 5.8 mph - N/A   Clear
2:35 PM 55.4 °F 19.4 °F 25% 30.41 in 10.0 mi East 3.5 mph - N/A   Clear
2:55 PM 55.4 °F 19.4 °F 25% 30.41 in 10.0 mi Calm Calm - N/A   Clear
3:15 PM 55.4 °F 21.2 °F 26% 30.41 in 10.0 mi Calm Calm - N/A   Clear
3:35 PM 55.4 °F 21.2 °F 26% 30.41 in 10.0 mi Calm Calm - N/A   Clear
3:55 PM 55.4 °F 21.2 °F 26% 30.41 in 10.0 mi East 3.5 mph - N/A   Clear
4:15 PM 53.6 °F 23.0 °F 30% 30.40 in 10.0 mi East 3.5 mph - N/A   Clear
4:35 PM 53.6 °F 28.4 °F 38% 30.40 in 10.0 mi Calm Calm - N/A   Clear
5:15 PM 46.4 °F 32.0 °F 57% 30.39 in 10.0 mi Calm Calm - N/A   Clear
5:55 PM 41.0 °F 32.0 °F 70% 30.40 in 10.0 mi Calm Calm - N/A   Clear
6:15 PM 39.2 °F 32.0 °F 75% 30.41 in 10.0 mi Calm Calm - N/A   Clear
6:35 PM 37.4 °F 32.0 °F 81% 30.42 in 10.0 mi Calm Calm - N/A   Clear
6:55 PM 37.4 °F 32.0 °F 81% 30.42 in 10.0 mi Calm Calm - N/A   Clear
7:15 PM 35.6 °F 32.0 °F 87% 30.43 in 10.0 mi Calm Calm - N/A   Clear
7:35 PM 35.6 °F 32.0 °F 87% 30.43 in 10.0 mi Calm Calm - N/A   Clear
7:55 PM 33.8 °F 32.0 °F 93% 30.44 in 10.0 mi Calm Calm - N/A   Clear
8:15 PM 33.8 °F 32.0 °F 93% 30.45 in 10.0 mi Calm Calm - N/A   Clear
8:35 PM 33.8 °F 32.0 °F 93% 30.46 in 10.0 mi Calm Calm - N/A   Clear
8:55 PM 33.8 °F 32.0 °F 93% 30.46 in 10.0 mi Calm Calm - N/A   Clear
9:15 PM 32.0 °F 32.0 °F 100% 30.46 in 10.0 mi Calm Calm - N/A   Clear
9:35 PM 32.0 °F 30.2 °F 93% 30.47 in 10.0 mi Calm Calm - N/A   Clear
9:55 PM 32.0 °F 32.0 °F 100% 30.48 in 10.0 mi Calm Calm - N/A   Clear
10:15 PM 32.0 °F 32.0 °F 100% 30.48 in 10.0 mi Calm Calm - N/A   Clear
10:35 PM 32.0 °F 32.0 °F 100% 30.48 in 10.0 mi Calm Calm - N/A   Clear
10:55 PM 32.0 °F 32.0 °F 100% 30.48 in 10.0 mi Calm Calm - N/A   Clear
11:15 PM 32.0 °F 32.0 °F 100% 30.47 in 10.0 mi Calm Calm - N/A   Clear
11:35 PM 32.0 °F 32.0 °F 100% 30.47 in 10.0 mi Calm Calm - N/A   Clear
11:55 PM 32.0 °F 32.0 °F 100% 30.46 in 10.0 mi Calm Calm - N/A   Clear